{"data":{"norad_id":63364,"epoch":"2026-05-25T03:10:09.140736Z","epoch_age_seconds":70521,"freshness":"FRESH","line1":"1 63364U 25063B   26145.13205024  .00020526  00000+0  70290-3 0  9998","line2":"2 63364  53.1609  54.5276 0000842 113.5494 246.5595 15.30215117 66495","mean_motion":15.30215117,"eccentricity":8.42e-5,"inclination_deg":53.1609,"raan_deg":54.5276,"arg_perigee_deg":113.5494,"mean_anomaly_deg":246.5595,"bstar":0.0007029,"rev_number":6649,"period_min":94.104416039435,"perigee_km":474.59288471,"apogee_km":475.74698159754,"semimajor_km":6853.3069331538,"source":"CELESTRAK","updated_at":"2026-05-25T13:38:19.961479Z"}}